Tracking 31027 objects as of 19-Jul-2025
HD Live streaming from Space Station
objects crossing your sky now

NOAA 16 DEB

Track NOAA 16 DEB now!
10-day predictions


NORAD ID: 41365
Int'l Code: 2000-055JJ
Perigee: 710.6 km
Apogee: 754.9 km
Inclination: 98.9 °
Period: 99.3 minutes
Semi major axis: 7103 km
RCS: Unknown
Launch date: September 21, 2000
Source: United States (US)
Launch site: AIR FORCE WESTERN TEST RANGE (AFWTR)

Note: This is SATELLITE DEBRIS
Your satellite tracking list
STARLINK-31879
Track 1 satellite(s)




NASA's NSSDC Master Catalog

Two Line Element Set (TLE):
1 41365U 00055JJ  25198.38766753  .00006790  00000-0  17535-2 0  9994
2 41365  98.9224   0.2857 0031153  48.4475 311.9381 14.50015506490930
Source of the keplerian elements: AFSPC